369  
ASUS44 KSJT 160310  
RWRSJT  
WEST CENTRAL TEXAS REGIONAL WEATHER ROUNDUP  
NATIONAL WEATHER SERVICE SAN ANGELO TX  
1000 PM CDT MON JUL 15 2024  
 
NOTE: "FAIR" INDICATES FEW OR NO CLOUDS BELOW 12,000 FEET WITH NO  
SIGNIFICANT WEATHER AND/OR S TO VISIBILITY
.  
 
TXZ049-054-064>066-071>073-076>078-098-099-113-114-127-128-139-140-  
154-155-168>170-160400-   
..LOCATIONS ACROSS WEST CENTRAL TEXAS
 
 
 
CITY SKY/WX TMP DP RH WIND PRES REMARKS
 
SAN ANGELO CLEAR 91 57 31 S8 29.93R TC 33  
ABILENE CLEAR 90 61 37 SE9 29.92R TC 32  
DYESS AFB CLEAR 92 58 32 SE14 29.89R TC 33  
JUNCTION CLEAR 88 63 43 S6 29.97R TC 31  
SWEETWATER N/A 90 54 29 S7 29.97R TC 32  
BROWNWOOD NOT AVBL  
COLEMAN CLEAR 88 61 40 MISG 29.93R TC 31  
SAN SABA CLEAR 88 64 43 SE8 29.95R TC 31  
SONORA CLEAR N/A N/A N/A S9 30.03R  
OZONA CLEAR 88 55 33 S10G18 30.01R TC 31  
BRADY CLEAR 88 59 37 S9 29.95R TC 31  

 
 
TXZ001-004-007-008-010-012-014-016-OKZ002-160400-  
TEXAS PANHANDLE/OKLAHOMA PANHANDLE  
 
CITY SKY/WX TMP DP RH WIND PRES REMARKS
 
AMARILLO CLEAR 91 52 26 S14G25 29.96R TC 33  
BORGER PTCLDY 95 53 24 S15G23 29.91R TC 35  
CANADIAN PTCLDY 94 55 27 S18 29.84R TC 34  
DALHART CLOUDY 86 49 27 SW6 29.97R TC 30  
DUMAS PTCLDY 88 46 23 S9 29.96R TC 31  
GUYMON NOT AVBL  
HEREFORD PTCLDY 88 49 26 S10 30.01R TC 31  
PAMPA PTCLDY 90 56 31 S10 29.94R TC 32  
PERRYTON PTCLDY N/A N/A N/A S14 29.86R  

 
 
TXZ035-026-045-048-160400-  
SOUTHERN PANHANDLE/SOUTH PLAINS/ROLLING PLAINS  
 
CITY SKY/WX TMP DP RH WIND PRES REMARKS
 
LUBBOCK PTCLDY 86 55 34 S8 29.98R TC 30  
SNYDER CLEAR 92 51 24 S7 29.94S TC 33  
CHILDRESS CLEAR 89 57 33 S8 29.87R TC 32  
SEMINOLE CLEAR 90 50 25 S7 30.04R TC 32  

 
 
TXZ060>062-160400-  
PERMIAN BASIN  
 
CITY SKY/WX TMP DP RH WIND PRES REMARKS
 
MIDLAND CLEAR 90 56 31 S13 29.97R TC 32  
ODESSA CLEAR 91 56 30 S10 29.99R TC 33  
WINK CLEAR 93 52 24 SE12 29.94R TC 34  

 
 
TXZ075-082-271-274-277-419-160400-  
FAR WEST/SOUTHWEST MOUNTAINS/TRANS PECOS  
 
CITY SKY/WX TMP DP RH WIND PRES REMARKS
 
ALPINE MOCLDY 78 56 47 CALM 30.16R TC 26  
DRYDEN N/A 87 64 46 SE9 29.97R TC 31  
EL PASO PTCLDY 94 47 20 SE8 29.98R TC 34  
FORT STOCKTON CLEAR 88 59 37 SE9 29.98R TC 31  
GUADALUPE PASS NOT AVBL  
MARFA NOT AVBL  
PECOS CLEAR 90 59 34 S16G23 29.95R TC 32  

 
 
TXZ118-119-160400-  
DALLAS/FORT WORTH METROPLEX  
 
CITY SKY/WX TMP DP RH WIND PRES REMARKS
 
DFW AIRPORT CLEAR 91 66 43 S9 29.88R TC 33  
FTW MEACHAM CLEAR 90 67 46 S15 29.88R TC 32  
DAL-EXECUTIVE CLEAR 89 70 53 S12 29.90R TC 32  
GRAND PRAIRIE CLEAR 90 65 43 SE7 29.91R TC 32  
ADDISON CLEAR 91 64 40 SE12 29.91R TC 33  
MESQUITE CLEAR 87 70 57 SE8 29.91R TC 31  
LANCASTER CLEAR 87 71 58 S8 29.92R TC 30  

 
 
TXZ092-093-103-131-134-160400-  
NORTH CENTRAL TEXAS  
 
CITY SKY/WX TMP DP RH WIND PRES REMARKS
 
SHRMAN/DENISON CLEAR 90 67 47 S12 29.89S TC 32  
GAINESVILLE CLEAR 87 68 53 S7 29.91S TC 31  
BRIDGEPORT CLEAR 88 64 45 S7 29.90R TC 31  
DENTON CLEAR 89 70 53 S8 29.89R TC 32  
WAXAHACHIE CLEAR 87 71 57 S10 29.92S TC 31  
GRANBURY NOT AVBL  

 
 
TXZ085-086-115-141-160400-  
WESTERN NORTH TEXAS  
 
CITY SKY/WX TMP DP RH WIND PRES REMARKS
 
WICHITA FALLS CLEAR 84 69 60 S8 29.84S TC 29  
VERNON NOT AVBL  
BRECKENRIDGE CLEAR 90 64 43 MISG 29.89R TC 32  
COMANCHE N/A 87 62 43 S8 29.93R TC 31  

 
 
TXZ145-158-159-173-191-192-194-205-207-220-223-160400-  
CENTRAL AND SOUTH CENTRAL TEXAS  
 
CITY SKY/WX TMP DP RH WIND PRES REMARKS
 
AUSTIN/BERGSTM CLEAR 85 72 65 S10 29.94R TC 29  
WACO CLEAR 88 69 53 SE14 29.91R TC 31  
HILLSBORO CLEAR 88 71 56 SE13 29.91S TC 31  
TEMPLE CLEAR 88 66 48 SE12 29.94R TC 31  
KILLEEN-GRAY CLEAR 88 65 47 S10 29.93S TC 31  
FORT HOOD CLEAR 88 69 52 S8 29.92S TC 31  
GEORGETOWN CLEAR 88 64 44 S9 29.96R TC 31  
LAGO VISTA CLEAR 85 66 52 S6 30.01R TC 30  
SAN MARCOS CLEAR 83 70 64 SE7 29.96R TC 28  
NEW BRAUNFELS NOT AVBL  
RANDOLPH AFB CLEAR 87 68 53 S8 29.92R TC 30  
SAN ANTONIO PTCLDY 88 62 41 S10 29.95R TC 31  
STINSON CLEAR 86 63 45 S8 29.93R TC 30  
PLEASANTON NOT AVBL  
LA GRANGE CLEAR 84 76 76 S8 29.94R TC 29  
GIDDINGS CLEAR 84 76 77 S5 29.99S TC 29  

 
 
TXZ095-096-136-137-148-152-160400-  
EAST TEXAS  
 
CITY SKY/WX TMP DP RH WIND PRES REMARKS
 
PARIS CLEAR N/A N/A N/A S9 29.91F  
CLARKSVILLE NOT AVBL  
TYLER CLEAR 84 74 71 S8 29.93S TC 29  
LONGVIEW CLEAR 82 76 81 S6 29.93S TC 28  
PALESTINE CLEAR 82 75 78 S6 29.93R TC 28  
NACOGDOCHES CLEAR 81 81 100 S3 29.97R TC 27  

 
 
TXZ171-183-184-186-188-203-204-160400-  
TEXAS HILL COUNTRY AND EDWARDS PLATEAU  
 
CITY SKY/WX TMP DP RH WIND PRES REMARKS
 
LLANO CLEAR 88 64 45 SE7G14 29.94R TC 31  
HORSESHOE BAY CLEAR 87 66 49 S8G17 29.96R TC 31  
KERRVILLE CLEAR 86 64 46 SE8 29.99R TC 30  
FREDERICKSBRG CLEAR 85 63 47 S8 29.99R TC 29  
ROCKSPRINGS NOT AVBL  
HONDO CLEAR 86 60 41 S14 29.95R TC 30  
UVALDE PTCLDY 85 66 52 SE7 29.96R TC 30  
DEL RIO PTCLDY 91 63 39 SE16 29.91R TC 33  

 
 
TXZ163-177-195>197-199-213-226-237-160400-  
SOUTHEAST TEXAS  
 
CITY SKY/WX TMP DP RH WIND PRES REMARKS
 
COLLEGE STN CLEAR 85 75 72 S9 29.95S TC 29  
CALDWELL CLEAR 84 75 73 S9 29.96S TC 29  
CROCKETT PTCLDY 82 81 94 CALM 29.95S TC 28  
BRENHAM CLEAR 85 77 77 S7 29.97R TC 30  
HUNTSVILLE NOT AVBL  
CONROE CLEAR 82 73 74 SE5 29.97R TC 28  
HOUSTON BUSH PTCLDY 85 75 72 S6 29.96S TC 29  
HOUSTON HOBBY PTCLDY 83 76 79 S10 29.97R TC 28  
PERLAND CLEAR 93 76 57 CALM 29.99R TC 34  
WHARTON CLEAR 80 77 92 CALM 29.98S TC 26  

 
 
TXZ215-216-236-237-438-160400-  
THE UPPER TEXAS COAST  
 
CITY SKY/WX TMP DP RH WIND PRES REMARKS
 
ORANGE CLEAR 81 74 81 CALM 29.99S TC 27  
PORT ARTHUR CLEAR 80 76 87 SW3 29.97S TC 27  
GALVESTON CLEAR 84 75 74 S12 29.98S TC 29  
ANGLETON NOT AVBL  
BAY CITY CLEAR 80 76 90 S5 29.97S TC 26  

 
 
TXZ229-232-234-239-242-243-245-247-249-250-  
253-255-257-343-347-443-160400-  
TEXAS COASTAL BEND, RIO GRANDE PLAINS DEEP SOUTH TEXAS  
 
CITY SKY/WX TMP DP RH WIND PRES REMARKS
 
VICTORIA NOT AVBL  
BEEVILLE N/A 78 71 79 SE7 29.95S TC 26  
ROCKPORT CLEAR 84 76 76 S7G17 29.94F TC 29  
PORT ARANSAS PTCLDY 84 75 74 SE10 29.97F TC 29  
PORT LAVACA CLEAR 81 79 94 S5 29.96 TC 27  
CORPUS CHRISTI MOCLDY 82 75 78 SE9 29.95S TC 28  
KINGSVILLE NAS MOCLDY 82 75 79 SE8 29.95S TC 28  
COTULLA MOCLDY 87 67 51 SE9 29.92S TC 31  
LAREDO MOCLDY 86 69 56 SE12 29.93R TC 30  
BROWNSVILLE PTCLDY 82 78 88 SE6 29.96S TC 28  
PORT ISABEL PTCLDY 83 77 82 SE12 29.96S TC 28  
HEBBRONVILLE PTCLDY 82 72 72 SE9 29.96F TC 28  
MCALLEN PTCLDY 83 73 72 SE13 29.96R TC 28  
WESLACO NOT AVBL  
 
CLICK HERE TO GO TO PREVIOUS BULLETINS.

The Nexlab TX Page Main Text Page